Weather History for KFAR - January, 2014

Change the Weather History Date:

Wednesday, January 1, 2014

  Actual Average Record
Temperature  
Mean Temperature -12 °F 10 °F  
Max Temperature -5 °F 19 °F 43 °F (1964)
Min Temperature -20 °F 2 °F -35 °F (1885)
Degree Days  
Heating Degree Days 77 55  
Month to date heating degree days 77 55  
Since 1 July heating degree days 3800 3595  
Cooling Degree Days 0 0  
Month to date cooling degree days 0 0  
Year to date cooling degree days 0 0  
Moisture  
Dew Point -19 °F    
Average Humidity 71    
Maximum Humidity 79    
Minimum Humidity 63    
Precipitation  
Precipitation T in 0.03 in 1.06 in (1921)
Month to date precipitation T 0.03  
Year to date precipitation T 0.03  
Snow  
Snow T in 0.40 in 9.00 in (1921)
Month to date snowfall T 0.4  
Since 1 July snowfall 16.4 20.2  
Snow Depth 8.00 in    
Sea Level Pressure  
Sea Level Pressure 30.57 in    
Wind  
Wind Speed 4 mph (North)    
Max Wind Speed 9 mph    
Max Gust Speed 12 mph    
Visibility 9 miles    
Events Snow    
T = Trace of Precipitation, MM = Missing Value Source: NWS Daily Summary

Daily Weather History Graph

Daily Weather History Graph

Search for Another Location

Airport or City:

Trip Planner

Search our weather history database for the weather conditions in past years. The results will help you decide how hot, cold, wet, or windy it might be!

Date:

Astronomy

Jan. 01, 2014 Rise Set
Actual Time 8:12 AM CST 4:49 PM CST
Civil Twilight 7:37 AM CST 5:24 PM CST
Nautical Twilight 6:59 AM CST 6:03 PM CST
Astronomical Twilight 6:22 AM CST 6:39 PM CST
Moon 7:59 AM CST (1/1) 5:40 PM CST (1/1)
Length of Visible Light 9h 46m
Length of Day
8h 36m
New Moon, 0% of the Moon is Illuminated
Jan 1
New Moon
Jan 7
First Quarter
Jan 15
Full
Jan 23
Last Quarter
Jan 30
New

Hourly Weather History & Observations

Time (CST) Temp. Windchill Dew Point Humidity Pressure Visibility Wind Dir Wind Speed Gust Speed Precip Events Conditions
12:53 AM -16.1 °F -26.2 °F -23.1 °F 71% 30.55 in 10.0 mi NNE 3.5 mph - N/A   Overcast
1:53 AM -15.0 °F -31.0 °F -23.1 °F 67% 30.55 in 10.0 mi NNE 6.9 mph - N/A   Overcast
2:53 AM -14.1 °F -28.3 °F -22.0 °F 68% 30.55 in 10.0 mi NNE 5.8 mph - N/A   Overcast
3:53 AM -14.1 °F -29.9 °F -20.9 °F 71% 30.54 in 10.0 mi NNE 6.9 mph - N/A   Overcast
4:53 AM -13.0 °F -27.0 °F -20.9 °F 68% 30.53 in 10.0 mi NE 5.8 mph - N/A   Overcast
5:53 AM -13.0 °F -27.0 °F -20.9 °F 68% 30.54 in 10.0 mi NNE 5.8 mph - N/A   Overcast
6:53 AM -11.9 °F -21.5 °F -20.0 °F 67% 30.55 in 10.0 mi NNE 3.5 mph - N/A   Overcast
7:53 AM -11.9 °F -23.8 °F -18.9 °F 71% 30.57 in 10.0 mi North 4.6 mph - N/A   Overcast
8:53 AM -11.0 °F - -18.9 °F 68% 30.59 in 6.0 mi Calm Calm - 0.00 in Snow Light Snow
9:53 AM -9.9 °F -19.2 °F -18.0 °F 68% 30.60 in 10.0 mi North 3.5 mph - 0.00 in   Overcast
10:53 AM -9.0 °F -18.2 °F -17.0 °F 68% 30.61 in 3.0 mi NE 3.5 mph - 0.00 in Snow Light Snow
11:53 AM -8.0 °F -19.2 °F -16.1 °F 68% 30.60 in 3.0 mi NNE 4.6 mph - 0.00 in Snow Light Snow
12:53 PM -6.0 °F -16.9 °F -14.1 °F 68% 30.58 in 7.0 mi North 4.6 mph - 0.00 in Snow Light Snow
1:53 PM -6.0 °F -14.7 °F -14.1 °F 68% 30.56 in 7.0 mi NNE 3.5 mph - 0.00 in   Overcast
2:53 PM -6.0 °F -16.9 °F -13.0 °F 72% 30.56 in 8.0 mi North 4.6 mph - N/A   Overcast
3:53 PM -6.0 °F -16.9 °F -13.0 °F 72% 30.57 in 7.0 mi NNE 4.6 mph - N/A   Overcast
4:53 PM -6.0 °F -16.9 °F -13.0 °F 72% 30.58 in 9.0 mi North 4.6 mph - N/A   Overcast
5:53 PM -7.1 °F -19.9 °F -13.0 °F 75% 30.59 in 10.0 mi North 5.8 mph - N/A   Overcast
6:53 PM -9.0 °F -18.2 °F -15.0 °F 75% 30.59 in 10.0 mi North 3.5 mph - N/A   Overcast
7:53 PM -13.0 °F -25.1 °F -18.9 °F 75% 30.60 in 10.0 mi North 4.6 mph - N/A   Partly Cloudy
8:53 PM -15.0 °F -31.0 °F -20.9 °F 75% 30.60 in 10.0 mi NNW 6.9 mph - N/A   Clear
9:53 PM -17.0 °F -27.2 °F -22.0 °F 78% 30.60 in 10.0 mi NNW 3.5 mph - N/A   Clear
10:53 PM -18.9 °F - -25.1 °F 74% 30.58 in 10.0 mi Calm Calm - N/A   Clear
11:53 PM -18.0 °F -28.5 °F -25.1 °F 70% 30.59 in 10.0 mi NNW 3.5 mph - N/A   Clear